Tracking 30115 objects as of 9-Feb-2025
HD Live streaming from Space Station
objects crossing your sky now

OBJECT C

Track OBJECT C now!
10-day predictions


NORAD ID: 61240
Int'l Code: 2024-174C
Perigee: 505.6 km
Apogee: 526.9 km
Inclination: 97.5 °
Period: 94.8 minutes
Semi major axis: 6887 km
RCS: Unknown
Launch date: September 24, 2024
Source: People's Republic of China (PRC)
Launch site: Jiuquan Satellite Launch Center, China (JSC)
Your satellite tracking list
Your tracking list is empty




NASA's NSSDC Master Catalog

Two Line Element Set (TLE):
1 61240U 24174C   25040.57143710  .00005358  00000-0  25919-3 0  9990
2 61240  97.4502  49.6093 0015453 155.2089 204.9891 15.18910928 20831
Source of the keplerian elements: AFSPC